QPF
0.00 0.00 0.00 0.00 0.00 0.00 0.00 0.00 0.00 0.00 0.00 0.00 0.00 0.00 0.00 0.02 0.01 0.00 0.01 0.02 0.02 0.04 0.04 0.01 0.02 0.00 0.00 0.00 0.00 0.00 0.00 0.00 0.00 0.00 0.00 0.00 0.00 0.00 0.00 0.00 0.00 0.00 0.00 0.00 0.00
0.00 0.00 0.00 0.00 0.00 0.00 0.00 0.00 0.00 0.00 0.00 0.00 0.00 0.00 0.01 0.04 0.00 0.00 0.04 0.05 0.02 0.04 0.03 0.02 0.04 0.01 0.00 0.00 0.00 0.00 0.00 0.00 0.00 0.00 0.00 0.00 0.00 0.00 0.00 0.00 0.00 0.00 0.00 0.00 0.00
0.00 0.00 0.00 0.00 0.00 0.00 0.00 0.00 0.00 0.00 0.00 0.00 0.00 0.00 0.00 0.01 0.00 0.00 0.03 0.05 0.04 0.08 0.03 0.02 0.05 0.05 0.01 0.00 0.00 0.00 0.00 0.00 0.00 0.00 0.00 0.00 0.00 0.00 0.00 0.00 0.00 0.00 0.00 0.00 0.00
0.00 0.00 0.00 0.00 0.00 0.00 0.00 0.00 0.00 0.00 0.00 0.00 0.00 0.00 0.00 0.00 0.00 0.00 0.04 0.02 0.02 0.03 0.03 0.06 0.04 0.05 0.03 0.00 0.00 0.00 0.00 0.00 0.00 0.00 0.00 0.00 0.00 0.00 0.00 0.00 0.00 0.00 0.00 0.00 0.00
0.00 0.00 0.00 0.00 0.00 0.00 0.00 0.00 0.00 0.00 0.00 0.00 0.00 0.00 0.00 0.00 0.00 0.01 0.01 0.01 0.01 0.02 0.01 0.02 0.03 0.03 0.01 0.00 0.00 0.00 0.00 0.00 0.00 0.00 0.00 0.00 0.00 0.00 0.00 0.00 0.00 0.00 0.00 0.00 0.00
0.00 0.00 0.00 0.00 0.00 0.00 0.00 0.00 0.00 0.00 0.00 0.00 0.00 0.00 0.00 0.00 0.00 0.01 0.08 0.01 0.01 0.00 0.01 0.00 0.01 0.06 0.02 0.00 0.00 0.00 0.00 0.00 0.00 0.00 0.00 0.00 0.00 0.00 0.00 0.00 0.00 0.00 0.00 0.00 0.00
0.00 0.00 0.00 0.00 0.00 0.00 0.00 0.00 0.00 0.00 0.00 0.00 0.00 0.00 0.00 0.00 0.00 0.00 0.00 0.00 0.01 0.00 0.00 0.00 0.02 0.05 0.03 0.00 0.00 0.00 0.00 0.00 0.00 0.00 0.00 0.00 0.00 0.00 0.00 0.00 0.00 0.00 0.00 0.00 0.00
0.00 0.00 0.00 0.00 0.00 0.00 0.00 0.00 0.00 0.00 0.00 0.00 0.00 0.00 0.00 0.00 0.00 0.00 0.00 0.00 0.00 0.00 0.00 0.00 0.01 0.01 0.01 0.01 0.00 0.00 0.00 0.00 0.00 0.00 0.00 0.00 0.00 0.00 0.00 0.00 0.00 0.00 0.00 0.00 0.00
0.00 0.00 0.00 0.00 0.00 0.00 0.00 0.00 0.00 0.00 0.00 0.00 0.00 0.00 0.00 0.00 0.00 0.00 0.00 0.00 0.00 0.00 0.00 0.00 0.00 0.00 0.00 0.00 0.00 0.00 0.00 0.00 0.00 0.00 0.00 0.00 0.00 0.00 0.00 0.00 0.00 0.00 0.00 0.00 0.00
0.00 0.00 0.00 0.00 0.00 0.00 0.00 0.00 0.00 0.00 0.00 0.00 0.00 0.00 0.00 0.00 0.00 0.00 0.00 0.00 0.00 0.00 0.00 0.00 0.00 0.00 0.00 0.00 0.00 0.00 0.00 0.00 0.00 0.00 0.00 0.00 0.00 0.00 0.00 0.00 0.00 0.00 0.00 0.00 0.00
0.00 0.00 0.00 0.00 0.00 0.00 0.00 0.00 0.00 0.00 0.00 0.00 0.00 0.00 0.00 0.00 0.00 0.00 0.00 0.00 0.00 0.00 0.00 0.00 0.00 0.00 0.00 0.00 0.00 0.00 0.00 0.00 0.00 0.00 0.00 0.00 0.00 0.00 0.01 0.00 0.00 0.00 0.00 0.00 0.00
0.00 0.00 0.00 0.00 0.00 0.00 0.00 0.00 0.00 0.00 0.00 0.00 0.00 0.00 0.00 0.00 0.00 0.00 0.00 0.00 0.00 0.01 0.00 0.00 0.00 0.00 0.00 0.00 0.00 0.00 0.00 0.00 0.00 0.00 0.00 0.00 0.00 0.00 0.01 0.00 0.00 0.00 0.00 0.00 0.00
0.00 0.00 0.00 0.00 0.00 0.00 0.00 0.00 0.00 0.00 0.00 0.00 0.00 0.00 0.00 0.00 0.00 0.00 0.00 0.00 0.01 0.04 0.03 0.01 0.00 0.00 0.00 0.00 0.00 0.00 0.00 0.00 0.00 0.00 0.00 0.00 0.00 0.00 0.00 0.00 0.00 0.00 0.00 0.00 0.00
0.00 0.00 0.00 0.00 0.00 0.00 0.00 0.00 0.00 0.00 0.00 0.00 0.00 0.00 0.00 0.00 0.00 0.00 0.00 0.00 0.00 0.01 0.04 0.00 0.01 0.00 0.00 0.00 0.00 0.00 0.00 0.00 0.00 0.00 0.00 0.00 0.00 0.00 0.00 0.00 0.00 0.00 0.00 0.00 0.00
0.00 0.00 0.00 0.00 0.00 0.00 0.00 0.00 0.00 0.00 0.00 0.00 0.00 0.00 0.00 0.00 0.00 0.00 0.00 0.00 0.00 0.00 0.00 0.00 0.03 0.03 0.00 0.00 0.00 0.00 0.00 0.00 0.00 0.00 0.00 0.00 0.00 0.00 0.00 0.00 0.00 0.00 0.00 0.00 0.00
0.00 0.00 0.00 0.00 0.00 0.00 0.00 0.00 0.00 0.00 0.00 0.00 0.00 0.00 0.00 0.00 0.00 0.00 0.00 0.00 0.00 0.00 0.00 0.00 0.00 0.02 0.03 0.00 0.00 0.00 0.00 0.00 0.00 0.00 0.00 0.00 0.00 0.00 0.00 0.00 0.00 0.00 0.00 0.00 0.00
0.00 0.00 0.00 0.00 0.00 0.00 0.00 0.00 0.00 0.00 0.00 0.00 0.00 0.00 0.00 0.00 0.00 0.00 0.00 0.00 0.00 0.00 0.00 0.00 0.00 0.00 0.04 0.00 0.00 0.00 0.00 0.00 0.00 0.00 0.00 0.00 0.00 0.00 0.00 0.00 0.00 0.00 0.00 0.00 0.00
0.00 0.00 0.00 0.00 0.00 0.00 0.00 0.00 0.00 0.00 0.00 0.00 0.00 0.00 0.00 0.00 0.00 0.00 0.00 0.00 0.00 0.00 0.00 0.00 0.00 0.00 0.00 0.01 0.00 0.00 0.00 0.00 0.00 0.00 0.00 0.00 0.00 0.00 0.00 0.00 0.00 0.00 0.00 0.00 0.00
0.00 0.00 0.00 0.00 0.00 0.00 0.00 0.00 0.00 0.00 0.00 0.00 0.00 0.00 0.00 0.00 0.00 0.00 0.00 0.00 0.00 0.00 0.00 0.00 0.00 0.00 0.00 0.00 0.00 0.00 0.00 0.00 0.00 0.00 0.00 0.00 0.00 0.00 0.00 0.00 0.00 0.00 0.00 0.00 0.00
0.00 0.00 0.00 0.00 0.00 0.00 0.00 0.00 0.00 0.00 0.00 0.00 0.00 0.00 0.00 0.00 0.00 0.00 0.00 0.00 0.00 0.00 0.00 0.00 0.00 0.00 0.00 0.00 0.00 0.00 0.00 0.00 0.00 0.00 0.00 0.00 0.00 0.00 0.00 0.00 0.00 0.00 0.00 0.00 0.00
0.00 0.00 0.00 0.00 0.00 0.00 0.00 0.00 0.00 0.00 0.00 0.00 0.00 0.00 0.00 0.00 0.00 0.00 0.00 0.00 0.00 0.00 0.00 0.00 0.00 0.00 0.00 0.00 0.00 0.00 0.00 0.00 0.00 0.00 0.00 0.00 0.00 0.00 0.00 0.00 0.00 0.00 0.00 0.00 0.00
0.00 0.00 0.00 0.00 0.00 0.00 0.00 0.00 0.00 0.00 0.00 0.00 0.00 0.00 0.00 0.00 0.00 0.00 0.00 0.00 0.00 0.00 0.00 0.00 0.00 0.00 0.00 0.00 0.00 0.00 0.00 0.00 0.00 0.00 0.00 0.00 0.00 0.00 0.00 0.00 0.00 0.00 0.00 0.00 0.00
0.00 0.00 0.00 0.00 0.00 0.00 0.00 0.00 0.00 0.00 0.00 0.00 0.00 0.00 0.00 0.00 0.00 0.00 0.00 0.00 0.00 0.00 0.00 0.00 0.00 0.00 0.00 0.00 0.00 0.00 0.00 0.00 0.00 0.00 0.00 0.00 0.00 0.00 0.00 0.00 0.00 0.00 0.00 0.00 0.00
0.00 0.00 0.00 0.00 0.00 0.00 0.00 0.00 0.00 0.00 0.00 0.00 0.00 0.00 0.00 0.00 0.00 0.00 0.00 0.00 0.00 0.00 0.00 0.00 0.00 0.00 0.00 0.00 0.00 0.00 0.00 0.00 0.00 0.00 0.00 0.00 0.00 0.00 0.00 0.00 0.00 0.00 0.00 0.00 0.00
0.00 0.00 0.00 0.00 0.00 0.00 0.00 0.00 0.00 0.00 0.00 0.00 0.00 0.00 0.00 0.00 0.00 0.00 0.00 0.00 0.00 0.00 0.00 0.00 0.00 0.00 0.00 0.00 0.00 0.00 0.00 0.00 0.00 0.00 0.00 0.00 0.00 0.00 0.00 0.00 0.00 0.00 0.00 0.00 0.00
0.00 0.00 0.00 0.00 0.00 0.00 0.00 0.00 0.00 0.00 0.00 0.00 0.00 0.00 0.00 0.00 0.00 0.00 0.00 0.00 0.00 0.00 0.00 0.00 0.00 0.00 0.00 0.00 0.00 0.00 0.00 0.00 0.00 0.00 0.00 0.00 0.00 0.00 0.00 0.00 0.00 0.00 0.00 0.00 0.00
0.00 0.00 0.00 0.00 0.00 0.00 0.00 0.00 0.00 0.00 0.00 0.00 0.00 0.00 0.00 0.00 0.00 0.00 0.00 0.00 0.00 0.00 0.00 0.00 0.00 0.00 0.00 0.00 0.00 0.00 0.00 0.00 0.00 0.00 0.00 0.00 0.00 0.00 0.00 0.00 0.00 0.00 0.00 0.00 0.00
MSLP
1019.79 1019.43 1019.10 1018.81 1018.46 1018.13 1017.76 1017.38 1017.01 1016.61 1016.33 1016.12 1015.83 1015.33 1015.04 1014.98 1015.35 1015.58 1015.82 1015.80 1015.26 1014.72 1014.52 1014.85 1015.06 1015.16 1015.40 1015.78 1015.89 1016.16 1016.69 1016.16 1014.95 1014.23 1013.34 1013.04 1013.24 1013.75 1014.08 1014.56 1015.21 1015.61 1015.67 1015.27 1016.21
1019.78 1019.38 1019.14 1018.87 1018.50 1018.08 1017.79 1017.44 1017.04 1016.68 1016.39 1016.20 1015.95 1015.60 1015.39 1015.39 1015.55 1015.86 1016.11 1015.26 1014.69 1014.66 1015.10 1015.21 1015.36 1015.40 1015.78 1015.98 1016.05 1016.26 1016.63 1015.80 1014.75 1013.97 1013.13 1012.78 1012.74 1013.45 1014.20 1014.95 1015.43 1015.91 1016.03 1015.93 1016.48
1019.73 1019.43 1019.13 1018.78 1018.43 1018.13 1017.78 1017.52 1017.09 1016.73 1016.48 1016.26 1016.05 1015.86 1015.80 1015.77 1015.99 1016.48 1016.02 1015.35 1014.98 1015.02 1015.25 1015.53 1015.65 1015.87 1016.00 1016.20 1016.18 1016.16 1016.14 1015.52 1014.61 1013.93 1013.29 1012.92 1013.05 1013.29 1013.80 1015.01 1014.72 1014.86 1015.78 1016.25 1016.75
1019.72 1019.41 1019.10 1018.82 1018.43 1018.23 1017.84 1017.52 1017.14 1016.76 1016.54 1016.36 1016.15 1016.04 1016.00 1015.99 1016.82 1016.57 1016.19 1015.73 1015.38 1015.37 1015.60 1015.83 1016.06 1016.32 1016.48 1016.38 1016.18 1016.21 1015.76 1015.35 1014.68 1014.08 1013.72 1013.20 1012.93 1013.46 1013.68 1013.83 1013.86 1014.63 1015.63 1015.95 1016.72
1019.66 1019.39 1019.08 1018.73 1018.46 1018.19 1017.87 1017.52 1017.17 1016.77 1016.61 1016.36 1016.08 1015.98 1016.22 1016.62 1017.06 1016.67 1016.45 1015.97 1015.52 1015.71 1015.95 1016.17 1016.32 1016.43 1016.48 1016.52 1016.45 1016.33 1015.73 1015.16 1014.72 1014.19 1013.72 1013.26 1013.07 1013.30 1013.92 1014.10 1014.11 1014.86 1015.86 1016.43 1017.01
1019.57 1019.28 1018.98 1018.68 1018.35 1018.04 1017.73 1017.48 1017.12 1016.79 1016.56 1016.45 1016.31 1016.19 1016.41 1017.07 1017.05 1016.86 1016.61 1016.30 1016.16 1016.15 1016.31 1016.31 1016.41 1016.36 1016.52 1016.81 1016.73 1016.76 1016.01 1015.30 1014.81 1014.30 1013.73 1013.55 1013.37 1013.59 1014.52 1014.65 1014.89 1015.28 1016.03 1016.61 1017.17
1019.61 1019.21 1018.92 1018.62 1018.28 1017.98 1017.56 1017.24 1017.08 1016.78 1016.53 1016.49 1016.42 1016.60 1017.33 1017.90 1017.44 1017.01 1016.80 1016.76 1016.60 1016.39 1016.61 1016.67 1016.62 1016.73 1016.84 1016.79 1016.86 1016.54 1016.07 1015.43 1014.82 1014.38 1014.02 1013.72 1014.07 1014.19 1014.63 1014.97 1015.26 1015.90 1016.35 1016.82 1017.30
1019.57 1019.27 1018.96 1018.61 1018.25 1017.87 1017.46 1017.01 1016.82 1016.73 1016.51 1016.46 1016.53 1016.95 1017.72 1017.60 1017.48 1017.32 1017.09 1016.95 1016.82 1016.63 1016.72 1016.80 1016.70 1016.87 1017.14 1016.98 1016.89 1016.55 1016.16 1015.65 1014.69 1014.39 1014.04 1014.02 1014.25 1014.52 1014.98 1015.17 1015.55 1016.14 1016.53 1016.96 1017.31
1019.55 1019.16 1018.85 1018.55 1018.14 1017.76 1017.35 1016.72 1016.46 1016.49 1016.52 1016.48 1016.79 1016.98 1017.80 1017.53 1017.73 1017.77 1017.56 1017.47 1017.25 1017.02 1016.84 1016.78 1016.95 1017.53 1017.44 1017.60 1017.52 1017.11 1016.60 1015.84 1014.96 1014.50 1014.26 1014.40 1014.60 1014.80 1014.99 1015.56 1015.97 1016.35 1016.72 1017.04 1017.47
1019.63 1019.19 1018.75 1018.45 1018.01 1017.55 1017.04 1016.66 1016.40 1016.50 1016.64 1016.59 1016.96 1017.53 1017.50 1017.79 1017.74 1017.73 1017.80 1017.63 1017.52 1017.31 1017.17 1017.26 1017.70 1018.20 1018.34 1018.29 1018.05 1017.55 1016.95 1015.99 1015.15 1014.85 1014.58 1014.83 1015.21 1015.25 1015.38 1015.53 1016.11 1016.57 1016.86 1017.10 1017.40
1019.56 1019.12 1018.75 1018.39 1018.02 1017.55 1017.01 1016.93 1017.35 1017.39 1017.15 1017.42 1017.52 1017.50 1017.46 1017.59 1017.62 1017.76 1017.71 1017.62 1017.56 1017.68 1017.87 1017.91 1018.31 1018.34 1018.36 1018.31 1017.89 1017.49 1016.87 1016.28 1015.52 1015.13 1014.95 1015.38 1015.62 1015.60 1015.64 1015.92 1016.39 1016.85 1017.14 1017.34 1017.49
1019.46 1019.07 1018.69 1018.23 1017.90 1017.62 1017.60 1018.19 1018.39 1018.64 1017.99 1017.30 1017.26 1017.28 1017.28 1017.38 1017.63 1017.54 1017.77 1017.94 1017.93 1018.11 1018.22 1018.46 1018.43 1018.18 1018.06 1018.21 1018.23 1017.97 1017.13 1016.55 1015.93 1015.51 1015.35 1015.83 1016.28 1016.19 1016.13 1016.08 1016.13 1016.60 1017.24 1017.38 1017.77
1019.37 1018.93 1018.67 1018.13 1017.75 1017.89 1018.48 1018.89 1018.90 1018.74 1018.53 1017.47 1017.08 1016.95 1017.04 1017.48 1017.36 1017.34 1017.80 1017.99 1018.17 1018.39 1018.52 1018.44 1018.48 1017.85 1017.87 1018.13 1018.33 1017.95 1017.55 1016.95 1016.48 1016.22 1016.08 1016.57 1017.05 1016.67 1016.29 1016.25 1016.45 1016.75 1017.01 1017.45 1017.69
1019.36 1018.91 1018.51 1018.01 1018.18 1018.71 1019.07 1019.05 1018.96 1018.94 1019.24 1017.93 1017.13 1016.64 1016.84 1017.04 1017.31 1017.10 1017.38 1017.87 1018.02 1018.59 1018.94 1018.87 1018.53 1018.10 1017.82 1017.87 1017.93 1017.82 1017.10 1016.97 1017.01 1017.12 1017.86 1017.87 1018.20 1017.43 1016.91 1016.77 1016.73 1016.78 1017.17 1017.41 1017.64
1019.42 1018.97 1018.62 1018.13 1018.60 1019.00 1019.38 1019.04 1019.11 1019.20 1019.84 1018.17 1016.96 1016.21 1016.44 1017.02 1017.13 1017.21 1017.27 1017.62 1017.93 1018.45 1019.10 1019.24 1018.87 1018.39 1017.85 1017.86 1017.39 1017.40 1017.41 1017.75 1018.17 1018.80 1018.97 1019.26 1019.40 1017.54 1017.28 1017.01 1016.76 1016.76 1016.98 1017.00 1017.28
1019.16 1018.92 1018.68 1018.64 1018.93 1019.27 1019.24 1019.23 1019.52 1020.09 1019.49 1018.26 1017.29 1016.77 1016.83 1016.92 1017.04 1017.08 1017.43 1017.61 1017.90 1018.56 1018.93 1019.04 1018.74 1018.69 1018.24 1017.74 1017.54 1017.33 1018.25 1018.71 1019.33 1020.34 1020.95 1020.90 1020.28 1018.22 1017.16 1016.12 1016.24 1016.18 1016.32 1016.52 1017.10
1019.05 1018.68 1018.59 1018.98 1019.25 1019.20 1019.26 1019.81 1020.76 1020.10 1019.42 1018.46 1017.89 1017.53 1017.38 1017.27 1017.34 1017.52 1017.84 1018.25 1018.73 1019.21 1019.72 1019.48 1018.92 1018.65 1018.57 1018.12 1017.66 1017.68 1018.52 1020.32 1021.43 1021.76 1021.80 1020.92 1020.40 1017.38 1016.28 1015.59 1015.32 1015.29 1015.61 1016.19 1016.83
1019.01 1018.85 1018.95 1018.92 1019.29 1019.33 1019.45 1020.27 1021.04 1019.62 1019.11 1018.31 1017.93 1017.70 1017.74 1017.53 1017.57 1017.80 1018.24 1018.75 1018.96 1019.35 1020.28 1020.16 1019.35 1018.87 1018.64 1018.57 1018.60 1018.54 1019.01 1020.35 1021.67 1022.57 1022.20 1021.74 1019.73 1016.48 1015.31 1015.01 1014.95 1015.05 1015.33 1016.14 1016.95
1019.12 1019.27 1019.52 1019.48 1019.07 1019.37 1020.13 1020.95 1019.74 1019.07 1018.76 1018.74 1018.30 1017.91 1017.82 1017.71 1018.01 1018.08 1018.28 1018.65 1018.76 1019.13 1019.62 1019.77 1019.37 1018.86 1018.88 1018.70 1018.86 1018.79 1019.22 1020.31 1021.58 1022.97 1022.54 1020.91 1018.72 1016.28 1015.23 1015.09 1015.06 1015.24 1015.87 1016.10 1016.72
1019.74 1019.66 1019.65 1019.39 1019.48 1019.66 1020.67 1020.25 1019.24 1018.66 1018.42 1018.28 1018.71 1018.45 1018.20 1017.87 1018.07 1018.19 1018.39 1018.20 1018.33 1018.51 1018.90 1019.32 1019.68 1019.33 1018.90 1018.75 1018.87 1018.98 1019.41 1020.51 1021.28 1022.50 1022.48 1020.82 1019.39 1016.83 1015.45 1014.92 1015.32 1015.63 1015.82 1016.20 1016.65
1019.98 1019.94 1019.65 1019.40 1019.35 1020.16 1020.93 1020.09 1019.11 1018.36 1018.10 1018.40 1018.16 1018.35 1018.77 1018.30 1018.12 1018.20 1018.12 1018.17 1018.31 1018.48 1018.57 1018.96 1019.52 1020.05 1019.58 1019.20 1018.88 1019.61 1020.02 1020.60 1021.12 1021.62 1021.74 1021.16 1018.25 1015.68 1015.23 1015.08 1015.32 1015.56 1015.96 1016.37 1016.85
1020.42 1020.80 1019.96 1019.75 1020.11 1020.61 1020.30 1019.41 1018.71 1018.64 1018.38 1018.08 1018.21 1018.26 1017.86 1018.32 1018.69 1018.38 1018.08 1017.72 1017.83 1018.33 1018.83 1018.94 1019.49 1019.94 1019.44 1019.28 1019.15 1019.09 1019.29 1019.65 1020.98 1021.64 1022.00 1020.94 1017.31 1014.98 1014.80 1014.92 1015.12 1015.29 1015.78 1016.25 1016.75
1020.95 1020.65 1020.03 1020.08 1020.25 1020.20 1019.60 1019.07 1018.52 1018.47 1018.55 1018.52 1018.22 1018.11 1018.23 1018.27 1018.41 1018.47 1018.17 1017.67 1017.75 1018.03 1018.50 1018.98 1019.61 1019.83 1019.84 1019.74 1019.43 1019.34 1019.20 1019.38 1019.82 1020.51 1021.04 1020.40 1016.78 1014.75 1014.59 1014.59 1014.75 1015.22 1015.64 1016.08 1016.69
1021.24 1021.12 1020.52 1020.35 1020.22 1019.78 1019.34 1018.81 1018.44 1018.11 1018.15 1018.12 1018.15 1018.06 1018.17 1018.41 1018.24 1018.09 1018.04 1018.23 1018.22 1018.25 1018.40 1018.68 1019.52 1019.58 1019.08 1018.67 1018.70 1019.15 1019.02 1019.41 1019.74 1020.25 1019.66 1018.54 1016.71 1014.36 1014.05 1014.17 1014.62 1014.87 1015.25 1015.72 1016.27
1021.46 1021.35 1021.18 1020.72 1020.19 1019.90 1019.34 1018.42 1018.20 1018.08 1018.14 1018.10 1018.17 1018.14 1018.00 1018.36 1018.34 1018.29 1018.07 1018.33 1018.53 1018.79 1018.88 1019.10 1019.47 1019.36 1018.83 1018.47 1018.35 1018.21 1018.26 1018.64 1019.04 1018.46 1018.26 1016.68 1016.15 1013.71 1013.37 1013.68 1013.84 1014.46 1015.30 1015.91 1016.37
1021.50 1021.78 1021.56 1020.85 1020.26 1019.77 1019.32 1018.62 1017.77 1017.29 1017.61 1017.85 1018.01 1017.61 1017.95 1017.83 1017.45 1017.65 1018.03 1018.27 1018.44 1019.03 1019.32 1019.61 1019.66 1019.38 1018.84 1018.18 1018.11 1017.82 1017.43 1017.66 1017.78 1017.62 1017.12 1016.51 1014.93 1013.09 1012.74 1013.03 1013.64 1014.19 1014.89 1015.37 1015.70
1021.59 1021.56 1021.49 1020.62 1020.35 1019.98 1018.76 1017.85 1017.40 1017.01 1016.42 1016.48 1016.99 1017.48 1017.83 1017.20 1017.11 1017.18 1017.42 1017.86 1018.17 1018.76 1019.54 1019.92 1019.83 1019.90 1019.19 1018.43 1017.98 1017.48 1015.30 1015.55 1015.81 1015.76 1015.48 1015.16 1011.86 1012.30 1012.60 1012.89 1012.90 1013.28 1013.82 1014.06 1014.59
Thickness
5631 5631 5629 5626 5622 5614 5604 5593 5578 5570 5564 5560 5558 5558 5557 5554 5549 5546 5543 5544 5549 5556 5563 5568 5573 5580 5587 5592 5601 5608 5603 5617 5648 5658 5683 5691 5695 5702 5708 5706 5709 5711 5715 5724 5721
5629 5629 5627 5624 5618 5610 5601 5589 5575 5566 5563 5559 5554 5552 5549 5548 5545 5541 5539 5546 5552 5554 5554 5558 5562 5570 5573 5580 5587 5590 5593 5620 5646 5663 5683 5688 5697 5697 5700 5699 5703 5703 5708 5714 5714
5627 5626 5625 5621 5615 5609 5599 5585 5573 5564 5560 5555 5550 5546 5542 5540 5537 5533 5536 5542 5548 5550 5551 5553 5556 5559 5567 5572 5581 5586 5594 5619 5640 5655 5672 5678 5684 5694 5695 5690 5703 5708 5702 5706 5708
5626 5624 5622 5618 5613 5605 5596 5584 5572 5563 5558 5552 5547 5543 5538 5536 5526 5529 5533 5538 5543 5545 5547 5546 5550 5553 5555 5563 5577 5584 5600 5614 5629 5645 5656 5666 5677 5680 5693 5704 5710 5705 5704 5707 5704
5625 5622 5620 5617 5611 5603 5594 5584 5572 5564 5557 5552 5548 5543 5538 5528 5523 5527 5529 5535 5540 5542 5542 5544 5547 5549 5555 5560 5571 5580 5595 5610 5622 5634 5647 5661 5671 5680 5683 5690 5700 5699 5700 5699 5698
5624 5622 5619 5615 5610 5603 5595 5584 5573 5565 5557 5551 5546 5542 5537 5524 5526 5527 5529 5531 5534 5536 5538 5542 5546 5549 5550 5555 5564 5568 5581 5596 5613 5620 5638 5651 5661 5672 5670 5680 5686 5691 5691 5694 5691
5622 5621 5618 5614 5609 5603 5596 5588 5576 5566 5559 5553 5546 5540 5528 5522 5525 5526 5527 5527 5529 5533 5533 5537 5541 5544 5550 5553 5557 5568 5582 5593 5605 5616 5630 5644 5646 5654 5662 5674 5679 5681 5682 5685 5686
5621 5619 5616 5613 5609 5604 5598 5591 5582 5571 5561 5555 5549 5540 5525 5524 5523 5524 5526 5527 5528 5531 5531 5533 5538 5541 5544 5552 5556 5568 5574 5572 5599 5610 5624 5631 5632 5648 5657 5665 5672 5676 5677 5680 5682
5620 5619 5616 5613 5610 5605 5600 5597 5589 5577 5566 5557 5549 5542 5526 5524 5521 5519 5523 5523 5525 5528 5530 5534 5534 5532 5542 5543 5543 5552 5555 5571 5590 5602 5613 5622 5629 5641 5652 5658 5661 5667 5672 5674 5674
5619 5618 5617 5614 5611 5607 5603 5599 5592 5582 5571 5562 5551 5540 5535 5525 5522 5521 5521 5522 5523 5526 5528 5528 5524 5520 5522 5528 5538 5544 5554 5569 5582 5594 5605 5611 5621 5628 5641 5650 5655 5660 5666 5669 5670
5620 5619 5616 5614 5611 5608 5605 5598 5584 5577 5571 5559 5551 5542 5538 5534 5529 5524 5523 5523 5524 5524 5518 5522 5517 5517 5524 5527 5541 5545 5554 5563 5574 5587 5597 5598 5610 5621 5632 5640 5644 5649 5657 5661 5662
5620 5619 5617 5615 5611 5608 5602 5590 5584 5576 5569 5568 5559 5551 5544 5538 5532 5530 5525 5523 5521 5516 5518 5518 5509 5525 5529 5529 5534 5538 5550 5559 5570 5581 5591 5593 5599 5611 5619 5633 5643 5647 5648 5654 5655
5621 5620 5617 5616 5613 5607 5596 5587 5581 5575 5567 5570 5565 5557 5550 5540 5536 5535 5527 5524 5521 5517 5511 5517 5520 5530 5532 5531 5528 5536 5541 5550 5563 5575 5579 5587 5590 5602 5617 5629 5634 5637 5645 5649 5653
5619 5619 5619 5618 5611 5600 5592 5587 5582 5576 5533 5569 5568 5565 5557 5548 5538 5538 5531 5527 5524 5515 5511 5512 5517 5525 5530 5533 5533 5539 5550 5554 5563 5557 5555 5567 5571 5587 5604 5617 5628 5635 5639 5645 5649
5617 5617 5616 5616 5608 5599 5593 5588 5582 5575 5513 5573 5572 5575 5565 5554 5547 5541 5535 5530 5527 5522 5517 5511 5512 5524 5532 5535 5541 5545 5545 5550 5548 5542 5557 5564 5547 5585 5596 5610 5624 5631 5637 5645 5647
5617 5615 5614 5611 5606 5599 5593 5587 5580 5544 5530 5571 5574 5568 5565 5559 5553 5547 5539 5533 5529 5523 5518 5519 5524 5522 5530 5536 5540 5545 5541 5537 5521 5521 5527 5540 5542 5568 5596 5621 5626 5633 5640 5645 5643
5615 5615 5613 5607 5602 5597 5593 5583 5550 5529 5572 5581 5571 5567 5562 5559 5555 5546 5538 5527 5514 5501 5488 5508 5525 5526 5522 5536 5540 5542 5539 5492 5497 5494 5524 5478 5519 5590 5610 5617 5631 5643 5644 5639 5638
5611 5610 5607 5605 5600 5595 5590 5573 5545 5582 5571 5579 5575 5571 5562 5563 5560 5550 5541 5525 5524 5509 5459 5483 5507 5528 5526 5528 5531 5532 5532 5505 5504 5471 5517 5517 5547 5589 5614 5620 5628 5636 5641 5635 5631
5606 5604 5599 5597 5597 5592 5581 5541 5575 5585 5583 5575 5573 5571 5568 5566 5551 5551 5545 5530 5531 5525 5521 5503 5518 5521 5525 5527 5528 5533 5526 5522 5495 5476 5496 5520 5562 5595 5606 5614 5625 5627 5626 5632 5628
5597 5595 5595 5593 5589 5584 5569 5580 5585 5584 5583 5580 5570 5569 5570 5565 5562 5556 5547 5547 5545 5538 5526 5526 5504 5519 5523 5525 5522 5530 5528 5527 5495 5510 5525 5529 5544 5575 5610 5617 5617 5620 5619 5623 5623
5587 5591 5589 5588 5586 5573 5558 5565 5579 5583 5585 5578 5576 5572 5557 5566 5564 5553 5559 5552 5543 5541 5536 5529 5509 5512 5519 5522 5529 5517 5512 5517 5510 5514 5514 5508 5548 5577 5598 5616 5612 5613 5614 5614 5614
5574 5573 5581 5579 5571 5543 5563 5571 5584 5577 5577 5579 5573 5566 5569 5563 5556 5553 5557 5556 5548 5543 5539 5533 5509 5491 5529 5520 5522 5525 5535 5528 5508 5539 5471 5483 5552 5601 5599 5603 5604 5610 5611 5609 5609
5562 5562 5570 5569 5559 5560 5564 5574 5577 5573 5570 5567 5568 5565 5565 5562 5562 5552 5554 5558 5549 5545 5538 5532 5519 5487 5519 5518 5515 5519 5526 5527 5515 5510 5514 5503 5550 5597 5596 5603 5604 5604 5604 5604 5601
5550 5551 5558 5552 5546 5566 5571 5572 5574 5568 5571 5567 5568 5568 5565 5558 5551 5564 5559 5551 5547 5547 5549 5539 5520 5527 5517 5543 5527 5526 5524 5521 5519 5502 5534 5515 5572 5607 5608 5608 5601 5596 5600 5598 5597
5533 5541 5541 5546 5549 5549 5552 5569 5568 5568 5558 5559 5564 5555 5557 5555 5557 5546 5553 5550 5545 5546 5539 5534 5529 5519 5526 5529 5536 5543 5545 5525 5519 5541 5550 5586 5557 5606 5606 5602 5600 5593 5589 5584 5582
5522 5523 5520 5523 5531 5541 5542 5551 5555 5564 5553 5553 5549 5561 5545 5552 5556 5558 5546 5546 5546 5536 5530 5521 5533 5530 5533 5542 5526 5535 5539 5535 5535 5543 5539 5546 5572 5596 5598 5596 5588 5585 5578 5580 5581
5501 5502 5508 5520 5517 5523 5531 5544 5549 5552 5558 5560 5549 5552 5539 5546 5552 5556 5546 5540 5545 5533 5522 5519 5519 5516 5532 5526 5534 5534 5553 5554 5553 5546 5564 5559 5611 5587 5593 5583 5586 5584 5584 5589 5584